CAPE
nan nan nan nan nan nan nan nan nan nan nan nan nan nan nan nan nan nan nan nan nan nan nan nan nan nan nan nan nan nan nan nan nan nan 0 2 2 2 3 2 2 1 1 1 1 1 1 1 1 0 0 nan nan nan nan nan nan nan nan nan nan nan nan nan nan nan nan nan nan nan nan nan nan nan nan nan nan nan nan nan nan nan nan nan nan nan
nan nan nan nan nan nan nan nan nan nan nan nan nan nan nan nan nan nan nan nan nan nan nan nan nan nan nan nan nan nan nan nan nan nan nan 0 1 1 2 1 1 1 1 1 1 1 1 1 1 0 nan nan nan nan nan nan nan nan nan nan nan nan nan nan nan nan nan nan nan nan nan nan nan nan nan nan nan nan nan nan nan nan nan nan nan nan
nan nan nan nan nan nan nan nan nan nan nan nan nan nan nan nan nan nan nan nan nan nan nan nan nan nan nan nan nan nan nan nan nan nan nan nan 0 0 0 1 1 1 1 1 1 1 0 0 0 nan nan nan nan nan nan nan nan nan nan nan nan nan nan nan nan nan nan nan nan nan nan nan nan nan nan nan nan nan nan nan nan nan nan nan nan nan
nan nan nan nan nan nan nan nan nan nan nan nan nan nan nan nan nan nan nan nan nan nan nan nan nan nan nan nan 4 4 6 0 nan nan nan nan nan nan nan 0 0 0 0 0 0 0 0 nan nan nan nan nan nan nan nan nan nan nan nan nan nan nan nan nan nan nan nan nan nan nan nan nan nan nan nan nan nan nan nan nan nan nan nan nan nan nan
nan nan nan nan nan nan nan nan nan nan nan nan nan nan nan nan nan nan nan nan nan nan nan nan nan nan nan nan 5 5 15 5 nan nan nan nan nan nan nan nan nan nan nan nan nan nan nan nan nan nan nan nan nan nan nan nan nan nan nan nan nan nan nan nan nan nan nan nan nan nan nan nan nan nan nan nan nan nan nan nan nan nan nan nan nan nan
nan nan nan nan nan nan nan nan nan nan nan nan nan nan nan nan nan nan nan nan nan nan nan nan nan nan nan nan 8 8 30 15 5 5 2 0 nan nan nan nan nan nan nan nan nan nan nan nan nan nan nan nan nan nan nan nan nan nan nan nan nan nan nan nan nan nan nan nan nan nan nan nan nan nan nan nan nan nan nan nan nan nan nan nan nan nan
nan nan nan nan nan nan nan nan nan nan nan nan nan nan nan nan nan nan nan nan nan nan nan nan nan nan nan nan 52 52 73 27 12 12 6 5 2 2 nan nan nan nan nan nan nan nan nan nan nan nan nan nan nan nan nan nan nan nan nan nan nan nan nan nan nan nan nan nan nan nan nan nan nan nan nan nan nan nan nan nan nan nan nan nan nan nan
nan nan nan nan nan nan nan nan nan nan nan nan nan nan nan nan nan nan nan nan nan nan nan nan nan nan nan nan 0 0 26 44 39 39 13 19 11 11 7 3 3 0 0 nan nan nan nan nan nan nan nan nan nan nan nan nan nan nan nan nan nan nan nan nan nan nan nan nan nan nan nan nan nan nan 1 1 nan nan nan nan nan nan nan nan nan nan
nan nan nan nan nan nan nan nan nan nan nan nan 0 0 nan nan nan nan nan nan nan nan nan nan nan nan nan nan nan nan 61 92 5 5 nan nan nan nan 2 7 7 1 0 nan nan nan nan nan nan nan nan nan nan nan 0 nan nan nan nan nan nan nan nan nan nan nan nan nan nan nan 0 1 3 3 4 4 1 1 nan nan nan nan nan nan nan nan
nan nan nan nan nan nan nan nan nan nan nan nan nan nan nan nan nan nan nan nan nan nan nan nan nan nan nan nan nan nan nan 104 143 143 42 nan nan nan nan 0 0 nan 11 3 3 0 nan nan nan nan nan nan 0 0 1 nan nan nan nan nan nan nan nan nan nan nan nan nan nan nan 1 2 3 3 5 4 1 1 nan nan nan nan nan nan nan nan
nan 0 nan nan nan nan nan nan 0 0 nan nan nan nan nan nan nan nan nan nan nan nan nan nan nan nan nan nan nan nan nan nan 55 55 44 49 39 39 39 29 29 32 53 25 25 21 8 0 0 0 0 1 1 1 0 nan nan nan nan nan nan nan nan nan nan nan nan nan nan nan nan 0 0 0 0 0 nan nan nan nan nan nan nan nan nan nan
0 1 1 nan nan nan nan nan nan nan nan nan nan nan nan nan nan nan nan nan nan nan nan nan nan nan nan nan nan nan nan nan nan nan nan nan nan nan nan nan nan nan nan nan nan 12 17 16 16 17 8 2 0 0 nan nan nan nan nan nan nan nan nan nan nan nan nan nan nan nan nan nan nan nan nan nan nan nan nan nan nan nan nan nan nan nan
2 4 1 nan nan nan nan nan nan nan nan nan nan nan nan nan nan nan nan nan nan nan nan nan nan nan nan nan nan nan nan nan nan nan nan nan nan nan nan nan nan nan nan nan nan nan nan nan nan 2 0 nan nan nan nan nan nan nan nan nan nan nan nan nan nan nan nan nan nan nan nan nan nan nan nan nan nan nan nan nan nan nan nan nan nan nan
1 1 nan nan nan nan nan nan nan nan nan nan 0 0 0 nan nan nan nan nan nan nan nan nan nan nan nan nan nan nan nan nan nan nan nan nan nan nan nan nan nan nan nan nan nan nan nan nan nan nan nan nan nan nan nan nan nan nan nan nan nan nan nan nan nan nan nan nan nan nan nan nan nan nan nan nan nan nan nan nan nan nan nan nan nan nan
nan nan nan nan nan 0 0 nan nan nan 1 3 3 3 2 nan nan nan nan nan nan nan nan nan nan nan nan nan nan nan nan nan nan nan nan nan nan nan nan nan nan nan nan nan nan nan nan nan nan nan nan nan nan nan nan nan nan nan nan nan nan nan nan nan nan nan nan nan nan nan nan nan nan nan nan nan nan nan nan nan nan nan nan nan nan nan
nan nan nan nan nan nan nan nan nan nan 0 1 0 0 nan nan nan nan nan nan nan nan nan nan nan nan nan nan nan nan nan nan nan nan nan nan nan nan nan nan nan nan nan nan nan nan nan nan nan nan nan nan nan nan nan nan nan nan nan nan nan nan nan nan nan nan nan nan nan nan nan nan nan nan nan nan nan nan nan nan nan nan nan nan nan nan
nan nan nan nan nan nan nan nan nan nan nan 0 0 0 0 0 nan nan nan nan nan nan nan nan nan nan nan nan nan nan nan nan nan nan nan nan nan nan nan nan nan nan nan nan nan nan nan nan nan nan nan nan nan nan nan nan nan nan nan nan nan nan nan nan nan nan nan nan nan nan nan nan nan nan nan nan nan nan nan nan nan nan nan nan nan nan
nan nan nan nan nan nan 0 nan nan nan nan nan 0 0 0 0 nan nan nan nan nan nan nan nan nan nan nan nan 0 0 0 nan nan nan nan nan nan nan nan nan nan nan nan nan nan nan nan nan nan nan nan nan nan nan nan nan nan nan nan nan nan nan nan nan nan nan nan nan nan nan nan nan nan nan nan nan nan nan nan nan nan nan nan nan nan nan
0 nan nan nan nan nan 0 0 nan nan nan nan nan nan nan nan nan nan nan nan nan nan nan nan nan nan nan nan 1 1 1 nan nan nan nan nan nan nan nan nan nan nan nan nan nan nan nan nan nan nan nan nan nan nan nan nan nan nan nan nan nan nan nan nan nan nan nan nan nan nan nan nan nan nan nan nan nan nan nan nan nan nan nan nan nan nan
0 nan nan 0 0 nan 0 0 0 0 0 0 nan nan nan nan nan nan nan nan nan nan nan nan nan nan nan nan 1 1 1 nan nan nan nan nan nan nan nan nan nan nan nan nan nan nan nan nan nan nan nan nan nan nan nan nan nan nan nan nan nan nan nan nan nan nan nan nan nan nan nan nan nan nan nan nan nan nan nan nan nan nan nan nan nan nan
0 nan nan 1 1 0 0 0 0 0 1 nan nan nan nan nan nan nan nan nan nan nan nan nan nan 0 0 nan 0 0 0 nan nan nan nan nan nan nan nan nan nan nan nan nan nan nan nan nan nan nan nan nan nan nan nan nan nan nan nan nan nan nan nan nan nan nan nan nan nan nan nan nan nan nan nan nan nan nan nan nan nan nan nan nan nan nan
nan nan nan 1 1 1 2 1 2 2 1 nan nan nan nan nan nan nan nan nan nan nan nan nan nan 0 0 nan nan nan 0 nan nan nan nan nan nan nan nan nan nan nan nan nan nan nan nan nan nan nan nan nan nan nan nan nan nan nan nan nan nan nan nan nan nan nan nan nan nan nan nan nan nan nan nan nan nan nan nan nan nan nan nan nan nan nan
nan nan nan 1 1 3 4 4 2 2 1 nan 0 0 nan nan nan nan nan nan nan nan nan 0 0 0 nan nan nan nan 0 nan nan nan nan nan 0 0 nan nan nan nan nan nan nan nan nan nan nan nan nan nan nan nan nan nan nan nan nan nan nan nan nan nan nan nan nan nan nan nan nan nan nan nan nan nan nan nan nan nan nan nan nan nan nan nan
0 nan 2 4 4 4 6 6 3 3 1 1 0 0 nan nan nan nan nan nan nan nan nan nan nan nan nan nan nan nan nan nan nan nan nan nan 0 0 nan nan nan 0 1 nan nan nan nan nan nan nan nan nan nan nan nan nan nan nan nan nan nan nan nan nan nan nan nan nan nan nan nan nan nan nan nan nan nan nan nan nan nan nan nan nan nan nan
6 8 13 12 12 13 10 9 8 8 4 1 1 1 0 0 nan nan nan nan nan nan nan nan nan nan nan nan nan nan 0 0 nan nan nan nan 0 0 nan nan nan 1 2 0 0 nan nan nan nan nan nan nan nan nan nan nan nan nan nan nan nan nan nan nan nan nan nan nan nan nan nan nan nan nan nan nan nan nan nan nan nan nan nan nan nan nan
21 19 22 31 31 39 39 32 26 26 12 3 0 0 nan nan nan nan nan nan nan nan nan nan nan nan 0 nan nan nan 0 nan nan nan nan nan nan nan 0 nan nan nan 2 1 1 nan nan nan nan nan nan nan nan nan nan nan nan nan nan nan nan nan nan nan nan nan nan nan nan nan nan nan nan nan nan nan nan nan nan nan nan nan nan nan nan nan
31 33 39 41 41 41 42 36 34 34 27 13 1 1 nan nan nan nan nan nan nan nan nan nan nan nan nan nan 0 0 0 nan 0 0 nan nan nan nan 0 nan nan nan 1 1 1 1 nan nan nan nan nan nan nan nan nan nan nan nan nan nan nan nan nan nan nan nan nan nan nan nan nan nan nan nan nan nan nan nan nan nan nan nan nan nan nan nan
18 18 17 18 18 21 28 33 33 33 27 17 7 7 0 nan nan nan nan nan nan nan nan nan nan nan nan nan nan nan nan nan nan nan nan nan nan nan nan nan nan nan 0 1 1 2 1 nan nan nan nan nan nan nan nan nan nan nan nan nan nan nan nan nan nan nan nan nan nan nan nan nan nan nan nan nan nan nan nan nan nan nan nan nan nan nan
3 5 7 9 9 8 11 18 27 27 25 17 7 7 0 nan nan nan nan nan nan nan nan nan nan nan nan nan nan nan nan nan nan nan nan nan nan nan nan nan nan nan 0 1 1 0 nan nan nan nan nan nan nan nan nan nan nan nan nan nan nan nan nan nan nan nan nan nan nan nan nan nan nan nan nan nan nan nan nan nan nan nan nan nan nan nan
nan nan 0 2 2 2 1 1 11 11 19 14 8 8 1 nan nan nan nan nan nan nan nan nan nan nan nan nan nan nan nan nan nan nan nan nan nan nan nan nan nan nan nan nan nan nan nan nan nan nan nan nan nan nan nan nan nan nan nan nan nan nan nan nan nan nan nan nan nan nan nan nan nan nan nan nan nan nan nan nan nan nan nan nan nan nan
nan nan nan nan nan nan nan nan 0 0 5 8 5 5 1 nan nan nan nan nan nan nan nan nan nan nan nan nan nan nan nan nan nan nan nan nan nan nan nan nan nan nan nan nan nan nan nan nan nan nan nan nan nan nan nan nan nan nan nan nan nan nan nan nan nan nan nan nan nan nan nan nan nan nan nan nan nan nan nan nan nan nan nan nan nan nan
nan nan nan nan nan nan nan nan nan nan nan nan nan nan nan nan nan nan nan nan nan nan nan nan nan nan nan nan nan nan nan nan 2 2 nan nan nan nan nan nan nan nan nan nan nan nan nan nan nan nan nan nan nan nan nan nan nan nan nan nan nan nan nan nan nan nan nan nan nan nan nan nan nan nan nan nan nan nan nan nan nan nan nan nan nan nan
nan nan nan nan nan nan nan nan nan nan nan nan nan nan nan nan nan nan nan nan nan nan nan nan nan nan nan nan nan nan nan nan 3 3 1 nan nan nan nan nan nan nan nan nan nan nan nan nan nan nan nan nan nan nan nan nan nan nan nan nan nan nan nan nan nan nan nan nan nan nan nan nan nan nan nan nan nan nan nan nan nan nan nan nan nan nan
nan nan nan nan nan nan nan nan nan nan nan nan nan nan nan nan nan nan nan nan nan nan nan nan nan nan nan nan nan nan nan nan 1 1 1 nan nan nan nan nan nan nan nan nan nan nan nan nan nan nan nan nan nan nan nan nan nan nan nan nan nan nan nan nan nan nan nan nan nan nan nan nan nan nan nan nan nan nan nan nan nan nan 0 nan nan nan
nan nan nan nan nan nan nan nan nan nan nan nan nan nan nan nan nan nan nan nan nan nan nan nan nan nan nan nan nan nan nan nan nan nan nan nan nan nan nan nan nan nan nan nan nan nan nan nan nan nan nan nan nan nan nan nan nan nan nan nan nan nan nan nan nan nan nan nan nan nan nan nan nan nan nan nan nan nan nan 0 0 0 1 4 4 1
nan nan nan nan nan nan nan nan nan nan nan nan nan nan nan nan nan nan nan nan nan nan nan nan nan nan nan nan nan nan nan nan nan nan nan nan nan nan nan nan nan nan nan nan nan nan nan nan nan nan nan nan nan nan nan nan nan nan nan nan nan nan nan nan nan nan nan nan nan nan nan nan nan nan nan nan nan nan nan nan nan 0 2 5 5 7
nan nan nan nan nan nan nan nan nan nan nan nan nan nan nan nan nan nan nan nan nan nan nan nan nan nan nan nan nan nan nan nan nan nan nan nan nan nan nan nan nan nan nan nan nan nan nan nan nan nan nan nan nan nan nan nan nan nan nan nan nan nan nan nan nan nan nan nan nan nan nan nan nan nan nan nan nan nan nan nan nan nan 2 4 4 5
nan nan nan nan nan nan nan nan nan nan nan nan nan nan nan nan nan nan nan nan nan nan nan nan nan nan nan nan nan nan nan nan nan nan nan nan nan nan nan nan nan nan nan nan nan nan nan nan nan nan nan nan nan nan nan nan nan nan nan nan nan nan nan nan nan nan nan nan nan nan nan nan nan nan nan nan nan nan nan nan nan nan nan 1 1 2
nan nan nan nan nan nan nan nan nan nan nan nan nan nan nan nan nan nan nan nan nan nan nan nan nan nan nan nan nan nan nan nan nan nan nan nan nan nan nan nan nan nan nan nan nan nan nan nan nan nan nan nan nan nan nan nan nan nan nan nan nan nan nan nan nan nan nan nan nan nan nan nan nan nan nan nan nan nan nan nan nan nan nan nan nan nan
nan nan nan nan nan nan nan nan nan nan nan nan nan nan nan nan nan nan nan nan nan nan nan nan nan nan nan nan nan nan nan nan nan nan nan nan nan nan nan nan nan nan nan nan nan nan nan nan nan nan nan nan nan nan nan nan nan nan nan nan nan nan nan nan nan nan nan nan nan nan nan nan nan nan nan nan nan nan nan nan nan nan nan nan nan nan
nan nan nan nan nan nan nan nan nan nan nan nan nan nan nan nan nan nan nan nan nan nan nan nan nan nan nan nan nan nan nan nan nan nan nan nan nan nan nan nan nan nan nan nan nan nan nan nan nan nan nan nan nan nan nan nan nan nan nan nan nan nan nan nan nan nan nan nan nan nan nan nan nan nan nan nan nan nan nan nan nan nan nan nan nan nan
1 nan nan nan nan nan nan nan nan nan nan nan nan nan nan nan nan nan nan nan nan nan nan nan nan nan nan nan nan nan nan nan nan nan nan nan nan nan nan nan nan nan nan nan nan nan nan nan nan nan nan nan nan nan nan nan nan nan nan nan nan nan nan nan nan nan nan nan nan nan nan nan nan nan nan nan nan nan nan nan nan nan nan nan nan nan
nan nan nan nan nan nan nan nan nan nan nan nan nan nan nan nan nan nan nan nan nan nan nan nan nan nan nan nan nan nan nan nan nan nan nan nan nan nan nan nan nan nan nan nan nan nan nan nan nan nan nan nan nan nan nan nan nan nan nan nan nan nan nan nan nan nan nan nan nan nan nan nan nan nan nan nan nan nan nan nan nan nan nan nan nan nan
nan nan nan nan nan nan nan nan nan nan nan nan nan nan nan nan nan nan nan nan nan nan nan nan nan nan nan nan nan nan nan nan nan nan nan nan nan nan nan nan nan nan nan nan nan nan nan nan nan nan nan nan nan nan nan nan nan nan nan nan nan nan nan nan nan nan nan nan nan nan nan nan nan nan nan nan nan nan nan nan nan nan nan nan nan nan
nan nan nan nan nan nan nan nan nan nan nan nan nan nan nan nan nan nan nan nan nan nan nan nan nan nan nan nan nan nan nan nan nan nan nan nan nan nan nan nan nan nan nan nan nan nan nan nan nan nan nan nan nan nan nan nan nan nan nan nan nan nan nan nan nan nan nan nan nan nan nan nan nan nan nan nan nan nan nan nan nan nan nan nan nan nan
nan nan nan nan nan nan nan nan nan nan nan nan nan nan nan nan nan nan nan nan nan nan nan nan nan nan nan nan nan nan nan nan nan nan nan nan nan nan nan nan nan nan nan nan nan nan nan nan nan nan nan nan nan nan nan nan nan nan nan nan nan nan nan nan nan nan nan nan nan nan nan nan nan nan nan nan nan nan nan nan nan nan nan nan nan nan
nan nan nan nan nan nan nan nan nan nan nan nan nan nan nan nan nan nan nan nan nan nan nan nan nan nan nan nan nan nan nan nan nan nan nan nan nan nan nan nan nan nan nan nan nan nan nan nan nan nan nan nan nan nan nan nan nan nan nan nan nan nan nan nan nan nan nan nan nan nan nan nan nan nan nan nan nan nan nan nan nan nan nan nan nan nan
nan nan nan nan nan nan nan nan nan nan nan nan nan nan nan nan nan nan nan nan nan nan nan nan nan nan nan nan nan nan nan nan nan nan nan nan nan nan nan nan nan nan nan nan nan nan nan nan nan nan nan nan nan nan nan nan nan nan nan nan nan nan nan nan nan nan nan nan nan nan nan nan nan nan nan nan nan nan nan nan nan nan nan nan nan nan
nan nan nan nan nan nan nan nan nan nan nan nan nan nan nan nan nan nan nan nan nan nan nan nan nan nan nan nan nan nan nan nan nan nan nan nan nan nan nan nan nan nan nan nan nan nan nan nan nan nan nan nan nan nan nan nan nan nan nan nan nan nan nan nan nan nan nan nan nan nan nan nan nan nan nan nan nan nan nan nan nan nan nan nan nan nan
nan nan nan nan nan nan nan nan nan nan nan nan nan nan nan nan nan nan nan nan nan nan nan nan nan nan nan nan nan nan nan nan nan nan nan nan nan nan nan nan nan nan nan nan nan nan nan nan nan nan nan nan nan nan nan nan nan nan nan nan nan nan nan nan nan nan nan nan nan nan nan nan nan nan nan nan nan nan nan nan nan nan nan nan nan nan
0 nan nan nan nan nan nan nan 0 0 nan nan nan nan nan nan nan nan nan nan nan nan nan nan nan nan nan nan nan nan nan nan nan nan nan nan nan nan nan nan nan nan nan nan nan nan nan nan nan nan nan 7 nan nan nan nan nan nan nan nan nan nan nan nan nan nan nan nan nan nan nan nan nan nan nan nan nan nan nan nan nan nan nan nan nan nan
CIN
nan nan nan nan nan nan nan nan nan nan nan nan nan nan nan nan nan nan nan nan nan nan nan nan nan nan nan nan nan nan nan nan nan nan -0 -0 -0 -0 -0 -0 -0 -0 -0 -0 -0 -0 -0 -0 -0 -0 -1 nan nan nan nan nan nan nan nan nan nan nan nan nan nan nan nan nan nan nan nan nan nan nan nan nan nan nan nan nan nan nan nan nan nan nan
nan nan nan nan nan nan nan nan nan nan nan nan nan nan nan nan nan nan nan nan nan nan nan nan nan nan nan nan nan nan nan nan nan nan nan -0 -0 -0 -0 -0 -0 -0 -0 -0 -0 -0 -0 -0 -0 -0 nan nan nan nan nan nan nan nan nan nan nan nan nan nan nan nan nan nan nan nan nan nan nan nan nan nan nan nan nan nan nan nan nan nan nan nan
nan nan nan nan nan nan nan nan nan nan nan nan nan nan nan nan nan nan nan nan nan nan nan nan nan nan nan nan nan nan nan nan nan nan nan nan -0 -0 -0 -0 -0 -0 -0 -0 -0 -0 -0 -0 -0 nan nan nan nan nan nan nan nan nan nan nan nan nan nan nan nan nan nan nan nan nan nan nan nan nan nan nan nan nan nan nan nan nan nan nan nan nan
nan nan nan nan nan nan nan nan nan nan nan nan nan nan nan nan nan nan nan nan nan nan nan nan nan nan nan nan -83 -83 -72 -88 nan nan nan nan nan nan nan -0 -0 -0 -0 -0 -0 -0 -0 nan nan nan nan nan nan nan nan nan nan nan nan nan nan nan nan nan nan nan nan nan nan nan nan nan nan nan nan nan nan nan nan nan nan nan nan nan nan nan
nan nan nan nan nan nan nan nan nan nan nan nan nan nan nan nan nan nan nan nan nan nan nan nan nan nan nan nan -97 -97 -72 -88 nan nan nan nan nan nan nan nan nan nan nan nan nan nan nan nan nan nan nan nan nan nan nan nan nan nan nan nan nan nan nan nan nan nan nan nan nan nan nan nan nan nan nan nan nan nan nan nan nan nan nan nan nan nan
nan nan nan nan nan nan nan nan nan nan nan nan nan nan nan nan nan nan nan nan nan nan nan nan nan nan nan nan -114 -114 -70 -86 -101 -101 -109 -116 nan nan nan nan nan nan nan nan nan nan nan nan nan nan nan nan nan nan nan nan nan nan nan nan nan nan nan nan nan nan nan nan nan nan nan nan nan nan nan nan nan nan nan nan nan nan nan nan nan nan
nan nan nan nan nan nan nan nan nan nan nan nan nan nan nan nan nan nan nan nan nan nan nan nan nan nan nan nan -74 -74 -50 -89 -105 -105 -112 -110 -117 -117 nan nan nan nan nan nan nan nan nan nan nan nan nan nan nan nan nan nan nan nan nan nan nan nan nan nan nan nan nan nan nan nan nan nan nan nan nan nan nan nan nan nan nan nan nan nan nan nan
nan nan nan nan nan nan nan nan nan nan nan nan nan nan nan nan nan nan nan nan nan nan nan nan nan nan nan nan -211 -211 -118 -85 -83 -83 -121 -102 -111 -111 -113 -119 -119 -126 -132 nan nan nan nan nan nan nan nan nan nan nan nan nan nan nan nan nan nan nan nan nan nan nan nan nan nan nan nan nan nan nan -1 -0 nan nan nan nan nan nan nan nan nan nan
nan nan nan nan nan nan nan nan nan nan nan nan -271 -271 nan nan nan nan nan nan nan nan nan nan nan nan nan nan nan nan -64 -36 -157 -157 nan nan nan nan -140 -109 -109 -120 -116 nan nan nan nan nan nan nan nan nan nan nan -0 nan nan nan nan nan nan nan nan nan nan nan nan nan nan nan -1 -1 -1 -1 -1 -1 -1 -1 nan nan nan nan nan nan nan nan
nan nan nan nan nan nan nan nan nan nan nan nan nan nan nan nan nan nan nan nan nan nan nan nan nan nan nan nan nan nan nan -6 -1 -1 -78 nan nan nan nan -139 -139 nan -78 -84 -84 -0 nan nan nan nan nan nan -0 -0 -0 nan nan nan nan nan nan nan nan nan nan nan nan nan nan nan -1 -0 -0 -0 -0 -1 -2 -2 nan nan nan nan nan nan nan nan
nan -0 nan nan nan nan nan nan -0 -0 nan nan nan nan nan nan nan nan nan nan nan nan nan nan nan nan nan nan nan nan nan nan -0 -0 -55 -57 -73 -73 -70 -74 -74 -60 -2 -2 -2 -1 -0 -0 -0 -0 -0 -0 -0 -0 -1 nan nan nan nan nan nan nan nan nan nan nan nan nan nan nan nan -0 -0 -0 -0 -1 nan nan nan nan nan nan nan nan nan nan
-0 -0 -0 nan nan nan nan nan nan nan nan nan nan nan nan nan nan nan nan nan nan nan nan nan nan nan nan nan nan nan nan nan nan nan nan nan nan nan nan nan nan nan nan nan nan -4 -1 -1 -1 -0 -1 -2 -2 -2 nan nan nan nan nan nan nan nan nan nan nan nan nan nan nan nan nan nan nan nan nan nan nan nan nan nan nan nan nan nan nan nan
-0 -0 -0 nan nan nan nan nan nan nan nan nan nan nan nan nan nan nan nan nan nan nan nan nan nan nan nan nan nan nan nan nan nan nan nan nan nan nan nan nan nan nan nan nan nan nan nan nan nan -69 -78 nan nan nan nan nan nan nan nan nan nan nan nan nan nan nan nan nan nan nan nan nan nan nan nan nan nan nan nan nan nan nan nan nan nan nan
-0 -0 nan nan nan nan nan nan nan nan nan nan -0 -0 -0 nan nan nan nan nan nan nan nan nan nan nan nan nan nan nan nan nan nan nan nan nan nan nan nan nan nan nan nan nan nan nan nan nan nan nan nan nan nan nan nan nan nan nan nan nan nan nan nan nan nan nan nan nan nan nan nan nan nan nan nan nan nan nan nan nan nan nan nan nan nan nan
nan nan nan nan nan -0 -0 nan nan nan -0 -0 -0 -0 -0 nan nan nan nan nan nan nan nan nan nan nan nan nan nan nan nan nan nan nan nan nan nan nan nan nan nan nan nan nan nan nan nan nan nan nan nan nan nan nan nan nan nan nan nan nan nan nan nan nan nan nan nan nan nan nan nan nan nan nan nan nan nan nan nan nan nan nan nan nan nan nan
nan nan nan nan nan nan nan nan nan nan -0 -0 -0 -0 nan nan nan nan nan nan nan nan nan nan nan nan nan nan nan nan nan nan nan nan nan nan nan nan nan nan nan nan nan nan nan nan nan nan nan nan nan nan nan nan nan nan nan nan nan nan nan nan nan nan nan nan nan nan nan nan nan nan nan nan nan nan nan nan nan nan nan nan nan nan nan nan
nan nan nan nan nan nan nan nan nan nan nan -0 -0 -0 -0 -0 nan nan nan nan nan nan nan nan nan nan nan nan nan nan nan nan nan nan nan nan nan nan nan nan nan nan nan nan nan nan nan nan nan nan nan nan nan nan nan nan nan nan nan nan nan nan nan nan nan nan nan nan nan nan nan nan nan nan nan nan nan nan nan nan nan nan nan nan nan nan
nan nan nan nan nan nan -0 nan nan nan nan nan -0 -0 -0 -0 nan nan nan nan nan nan nan nan nan nan nan nan -0 -0 -0 nan nan nan nan nan nan nan nan nan nan nan nan nan nan nan nan nan nan nan nan nan nan nan nan nan nan nan nan nan nan nan nan nan nan nan nan nan nan nan nan nan nan nan nan nan nan nan nan nan nan nan nan nan nan nan
-0 nan nan nan nan nan -0 -0 nan nan nan nan nan nan nan nan nan nan nan nan nan nan nan nan nan nan nan nan -0 -0 -0 nan nan nan nan nan nan nan nan nan nan nan nan nan nan nan nan nan nan nan nan nan nan nan nan nan nan nan nan nan nan nan nan nan nan nan nan nan nan nan nan nan nan nan nan nan nan nan nan nan nan nan nan nan nan nan
-0 nan nan -0 -0 nan -0 -0 -0 -0 -0 -0 nan nan nan nan nan nan nan nan nan nan nan nan nan nan nan nan -0 -0 -0 nan nan nan nan nan nan nan nan nan nan nan nan nan nan nan nan nan nan nan nan nan nan nan nan nan nan nan nan nan nan nan nan nan nan nan nan nan nan nan nan nan nan nan nan nan nan nan nan nan nan nan nan nan nan nan
-0 nan nan -0 -0 -0 -0 -0 -0 -0 -0 nan nan nan nan nan nan nan nan nan nan nan nan nan nan -0 -0 nan -0 -0 -0 nan nan nan nan nan nan nan nan nan nan nan nan nan nan nan nan nan nan nan nan nan nan nan nan nan nan nan nan nan nan nan nan nan nan nan nan nan nan nan nan nan nan nan nan nan nan nan nan nan nan nan nan nan nan nan
nan nan nan -1 -1 -0 -0 -0 -0 -0 -0 nan nan nan nan nan nan nan nan nan nan nan nan nan nan -0 -0 nan nan nan -0 nan nan nan nan nan nan nan nan nan nan nan nan nan nan nan nan nan nan nan nan nan nan nan nan nan nan nan nan nan nan nan nan nan nan nan nan nan nan nan nan nan nan nan nan nan nan nan nan nan nan nan nan nan nan nan
nan nan nan -0 -0 -0 -0 -0 -0 -0 -0 nan -0 -0 nan nan nan nan nan nan nan nan nan -0 -0 -0 nan nan nan nan -0 nan nan nan nan nan -0 -0 nan nan nan nan nan nan nan nan nan nan nan nan nan nan nan nan nan nan nan nan nan nan nan nan nan nan nan nan nan nan nan nan nan nan nan nan nan nan nan nan nan nan nan nan nan nan nan nan
-0 nan -0 -0 -0 -0 -0 -0 -0 -0 -1 -0 -0 -0 nan nan nan nan nan nan nan nan nan nan nan nan nan nan nan nan nan nan nan nan nan nan -0 -0 nan nan nan -0 -0 nan nan nan nan nan nan nan nan nan nan nan nan nan nan nan nan nan nan nan nan nan nan nan nan nan nan nan nan nan nan nan nan nan nan nan nan nan nan nan nan nan nan nan
-0 -0 -0 -0 -0 -0 -0 -0 -0 -0 -0 -0 -1 -1 -1 -1 nan nan nan nan nan nan nan nan nan nan nan nan nan nan -0 -0 nan nan nan nan -0 -0 nan nan nan -1 -0 -1 -1 nan nan nan nan nan nan nan nan nan nan nan nan nan nan nan nan nan nan nan nan nan nan nan nan nan nan nan nan nan nan nan nan nan nan nan nan nan nan nan nan nan
-0 -0 -0 -0 -0 -0 -0 -0 -0 -0 -0 -0 -0 -0 nan nan nan nan nan nan nan nan nan nan nan nan -0 nan nan nan -0 nan nan nan nan nan nan nan -0 nan nan nan -0 -0 -0 nan nan nan nan nan nan nan nan nan nan nan nan nan nan nan nan nan nan nan nan nan nan nan nan nan nan nan nan nan nan nan nan nan nan nan nan nan nan nan nan nan
-0 -0 -0 -0 -0 -0 -0 -0 -0 -0 -0 -0 -0 -0 nan nan nan nan nan nan nan nan nan nan nan nan nan nan -0 -0 -0 nan -0 -0 nan nan nan nan -0 nan nan nan -0 -0 -0 -0 nan nan nan nan nan nan nan nan nan nan nan nan nan nan nan nan nan nan nan nan nan nan nan nan nan nan nan nan nan nan nan nan nan nan nan nan nan nan nan nan
-0 -0 -0 -0 -0 -0 -0 -0 -0 -0 -0 -0 -0 -0 -0 nan nan nan nan nan nan nan nan nan nan nan nan nan nan nan nan nan nan nan nan nan nan nan nan nan nan nan -0 -0 -0 -0 -0 nan nan nan nan nan nan nan nan nan nan nan nan nan nan nan nan nan nan nan nan nan nan nan nan nan nan nan nan nan nan nan nan nan nan nan nan nan nan nan
-0 -0 -0 -0 -0 -0 -0 -0 -0 -0 -0 -0 -0 -0 -0 nan nan nan nan nan nan nan nan nan nan nan nan nan nan nan nan nan nan nan nan nan nan nan nan nan nan nan -0 -0 -0 -0 nan nan nan nan nan nan nan nan nan nan nan nan nan nan nan nan nan nan nan nan nan nan nan nan nan nan nan nan nan nan nan nan nan nan nan nan nan nan nan nan
nan nan -0 -0 -0 -0 -0 -0 -0 -0 -0 -0 -0 -0 -0 nan nan nan nan nan nan nan nan nan nan nan nan nan nan nan nan nan nan nan nan nan nan nan nan nan nan nan nan nan nan nan nan nan nan nan nan nan nan nan nan nan nan nan nan nan nan nan nan nan nan nan nan nan nan nan nan nan nan nan nan nan nan nan nan nan nan nan nan nan nan nan
nan nan nan nan nan nan nan nan -0 -0 -0 -0 -0 -0 -0 nan nan nan nan nan nan nan nan nan nan nan nan nan nan nan nan nan nan nan nan nan nan nan nan nan nan nan nan nan nan nan nan nan nan nan nan nan nan nan nan nan nan nan nan nan nan nan nan nan nan nan nan nan nan nan nan nan nan nan nan nan nan nan nan nan nan nan nan nan nan nan
nan nan nan nan nan nan nan nan nan nan nan nan nan nan nan nan nan nan nan nan nan nan nan nan nan nan nan nan nan nan nan nan -0 -0 nan nan nan nan nan nan nan nan nan nan nan nan nan nan nan nan nan nan nan nan nan nan nan nan nan nan nan nan nan nan nan nan nan nan nan nan nan nan nan nan nan nan nan nan nan nan nan nan nan nan nan nan
nan nan nan nan nan nan nan nan nan nan nan nan nan nan nan nan nan nan nan nan nan nan nan nan nan nan nan nan nan nan nan nan -0 -0 -0 nan nan nan nan nan nan nan nan nan nan nan nan nan nan nan nan nan nan nan nan nan nan nan nan nan nan nan nan nan nan nan nan nan nan nan nan nan nan nan nan nan nan nan nan nan nan nan nan nan nan nan
nan nan nan nan nan nan nan nan nan nan nan nan nan nan nan nan nan nan nan nan nan nan nan nan nan nan nan nan nan nan nan nan -0 -0 -0 nan nan nan nan nan nan nan nan nan nan nan nan nan nan nan nan nan nan nan nan nan nan nan nan nan nan nan nan nan nan nan nan nan nan nan nan nan nan nan nan nan nan nan nan nan nan nan -0 nan nan nan
nan nan nan nan nan nan nan nan nan nan nan nan nan nan nan nan nan nan nan nan nan nan nan nan nan nan nan nan nan nan nan nan nan nan nan nan nan nan nan nan nan nan nan nan nan nan nan nan nan nan nan nan nan nan nan nan nan nan nan nan nan nan nan nan nan nan nan nan nan nan nan nan nan nan nan nan nan nan nan -0 -0 -0 -0 -0 -0 -2
nan nan nan nan nan nan nan nan nan nan nan nan nan nan nan nan nan nan nan nan nan nan nan nan nan nan nan nan nan nan nan nan nan nan nan nan nan nan nan nan nan nan nan nan nan nan nan nan nan nan nan nan nan nan nan nan nan nan nan nan nan nan nan nan nan nan nan nan nan nan nan nan nan nan nan nan nan nan nan nan nan -0 -0 -0 -0 -0
nan nan nan nan nan nan nan nan nan nan nan nan nan nan nan nan nan nan nan nan nan nan nan nan nan nan nan nan nan nan nan nan nan nan nan nan nan nan nan nan nan nan nan nan nan nan nan nan nan nan nan nan nan nan nan nan nan nan nan nan nan nan nan nan nan nan nan nan nan nan nan nan nan nan nan nan nan nan nan nan nan nan -0 -0 -0 -0
nan nan nan nan nan nan nan nan nan nan nan nan nan nan nan nan nan nan nan nan nan nan nan nan nan nan nan nan nan nan nan nan nan nan nan nan nan nan nan nan nan nan nan nan nan nan nan nan nan nan nan nan nan nan nan nan nan nan nan nan nan nan nan nan nan nan nan nan nan nan nan nan nan nan nan nan nan nan nan nan nan nan nan -0 -0 -0
nan nan nan nan nan nan nan nan nan nan nan nan nan nan nan nan nan nan nan nan nan nan nan nan nan nan nan nan nan nan nan nan nan nan nan nan nan nan nan nan nan nan nan nan nan nan nan nan nan nan nan nan nan nan nan nan nan nan nan nan nan nan nan nan nan nan nan nan nan nan nan nan nan nan nan nan nan nan nan nan nan nan nan nan nan nan
nan nan nan nan nan nan nan nan nan nan nan nan nan nan nan nan nan nan nan nan nan nan nan nan nan nan nan nan nan nan nan nan nan nan nan nan nan nan nan nan nan nan nan nan nan nan nan nan nan nan nan nan nan nan nan nan nan nan nan nan nan nan nan nan nan nan nan nan nan nan nan nan nan nan nan nan nan nan nan nan nan nan nan nan nan nan
nan nan nan nan nan nan nan nan nan nan nan nan nan nan nan nan nan nan nan nan nan nan nan nan nan nan nan nan nan nan nan nan nan nan nan nan nan nan nan nan nan nan nan nan nan nan nan nan nan nan nan nan nan nan nan nan nan nan nan nan nan nan nan nan nan nan nan nan nan nan nan nan nan nan nan nan nan nan nan nan nan nan nan nan nan nan
-0 nan nan nan nan nan nan nan nan nan nan nan nan nan nan nan nan nan nan nan nan nan nan nan nan nan nan nan nan nan nan nan nan nan nan nan nan nan nan nan nan nan nan nan nan nan nan nan nan nan nan nan nan nan nan nan nan nan nan nan nan nan nan nan nan nan nan nan nan nan nan nan nan nan nan nan nan nan nan nan nan nan nan nan nan nan
nan nan nan nan nan nan nan nan nan nan nan nan nan nan nan nan nan nan nan nan nan nan nan nan nan nan nan nan nan nan nan nan nan nan nan nan nan nan nan nan nan nan nan nan nan nan nan nan nan nan nan nan nan nan nan nan nan nan nan nan nan nan nan nan nan nan nan nan nan nan nan nan nan nan nan nan nan nan nan nan nan nan nan nan nan nan
nan nan nan nan nan nan nan nan nan nan nan nan nan nan nan nan nan nan nan nan nan nan nan nan nan nan nan nan nan nan nan nan nan nan nan nan nan nan nan nan nan nan nan nan nan nan nan nan nan nan nan nan nan nan nan nan nan nan nan nan nan nan nan nan nan nan nan nan nan nan nan nan nan nan nan nan nan nan nan nan nan nan nan nan nan nan
nan nan nan nan nan nan nan nan nan nan nan nan nan nan nan nan nan nan nan nan nan nan nan nan nan nan nan nan nan nan nan nan nan nan nan nan nan nan nan nan nan nan nan nan nan nan nan nan nan nan nan nan nan nan nan nan nan nan nan nan nan nan nan nan nan nan nan nan nan nan nan nan nan nan nan nan nan nan nan nan nan nan nan nan nan nan
nan nan nan nan nan nan nan nan nan nan nan nan nan nan nan nan nan nan nan nan nan nan nan nan nan nan nan nan nan nan nan nan nan nan nan nan nan nan nan nan nan nan nan nan nan nan nan nan nan nan nan nan nan nan nan nan nan nan nan nan nan nan nan nan nan nan nan nan nan nan nan nan nan nan nan nan nan nan nan nan nan nan nan nan nan nan
nan nan nan nan nan nan nan nan nan nan nan nan nan nan nan nan nan nan nan nan nan nan nan nan nan nan nan nan nan nan nan nan nan nan nan nan nan nan nan nan nan nan nan nan nan nan nan nan nan nan nan nan nan nan nan nan nan nan nan nan nan nan nan nan nan nan nan nan nan nan nan nan nan nan nan nan nan nan nan nan nan nan nan nan nan nan
nan nan nan nan nan nan nan nan nan nan nan nan nan nan nan nan nan nan nan nan nan nan nan nan nan nan nan nan nan nan nan nan nan nan nan nan nan nan nan nan nan nan nan nan nan nan nan nan nan nan nan nan nan nan nan nan nan nan nan nan nan nan nan nan nan nan nan nan nan nan nan nan nan nan nan nan nan nan nan nan nan nan nan nan nan nan
nan nan nan nan nan nan nan nan nan nan nan nan nan nan nan nan nan nan nan nan nan nan nan nan nan nan nan nan nan nan nan nan nan nan nan nan nan nan nan nan nan nan nan nan nan nan nan nan nan nan nan nan nan nan nan nan nan nan nan nan nan nan nan nan nan nan nan nan nan nan nan nan nan nan nan nan nan nan nan nan nan nan nan nan nan nan
nan nan nan nan nan nan nan nan nan nan nan nan nan nan nan nan nan nan nan nan nan nan nan nan nan nan nan nan nan nan nan nan nan nan nan nan nan nan nan nan nan nan nan nan nan nan nan nan nan nan nan nan nan nan nan nan nan nan nan nan nan nan nan nan nan nan nan nan nan nan nan nan nan nan nan nan nan nan nan nan nan nan nan nan nan nan
-0 nan nan nan nan nan nan nan -0 -0 nan nan nan nan nan nan nan nan nan nan nan nan nan nan nan nan nan nan nan nan nan nan nan nan nan nan nan nan nan nan nan nan nan nan nan nan nan nan nan nan nan -0 nan nan nan nan nan nan nan nan nan nan nan nan nan nan nan nan nan nan nan nan nan nan nan nan nan nan nan nan nan nan nan nan nan nan
Wind_Speed
0 0 1 2 2 3 3 2 3 3 2 2 2 2 2 2 2 1 2 3 4 5 5 4 4 5 6 8 10 12 13 13 13 13 13 13 13 13 13 13 13 13 14 14 14 14 14 14 13 13 13 12 11 11 11 12 12 12 13 12 12 12 12 12 12 12 12 12 12 11 11 12 12 11 11 11 11 11 12 12 12 11 11 11 11 10
1 1 1 2 2 2 2 2 2 3 3 3 3 3 3 2 1 1 0 1 3 4 5 5 5 5 5 6 9 12 13 13 14 14 14 13 13 13 13 13 13 13 14 14 14 14 14 14 13 13 12 12 11 11 11 12 12 12 12 12 12 12 11 11 11 11 11 11 11 11 11 11 11 11 10 10 10 11 11 11 11 11 10 10 10 10
1 1 1 1 2 2 2 2 2 2 3 3 4 4 4 3 2 1 1 1 2 3 4 4 5 5 5 6 9 12 14 14 14 14 14 13 13 13 13 13 13 13 14 14 14 14 14 13 13 13 12 12 12 12 12 12 12 11 11 11 11 11 11 11 11 11 11 10 10 10 10 10 10 9 9 9 9 9 10 10 10 10 10 9 9 9
1 1 1 1 1 1 1 2 2 2 2 2 3 4 4 3 2 2 2 2 2 2 2 3 4 5 5 5 7 11 14 14 14 14 14 14 13 13 13 13 13 13 14 14 14 14 14 13 13 12 12 12 12 12 12 12 12 11 11 10 10 10 10 10 10 10 10 10 9 9 9 9 8 8 8 8 8 8 8 9 9 9 9 9 9 8
1 1 1 1 1 1 0 1 1 1 1 2 3 3 3 2 2 2 1 1 2 2 2 2 3 4 4 5 7 10 14 14 14 14 14 14 14 14 14 13 14 14 14 14 14 14 13 13 13 12 12 12 11 12 12 12 12 11 11 10 10 9 9 9 9 9 9 9 8 8 8 7 7 7 6 6 6 6 7 7 8 8 8 8 8 8
1 0 0 1 1 1 1 1 1 2 2 2 2 2 2 2 2 2 2 2 2 2 2 2 1 1 2 4 7 11 15 15 15 14 14 14 14 14 14 14 14 14 14 14 14 13 13 13 12 12 12 12 12 12 12 12 12 12 11 11 10 10 9 9 9 8 8 8 7 7 7 6 6 5 4 4 4 5 5 6 7 7 7 7 7 6
1 1 1 1 1 1 1 1 1 1 2 2 2 2 2 2 3 3 3 2 2 2 2 2 2 2 1 2 5 9 13 14 14 14 14 14 14 14 14 14 14 14 14 14 14 13 13 13 13 12 12 12 12 12 12 12 12 12 11 11 10 10 10 9 9 9 8 7 7 6 6 5 4 4 3 3 2 3 4 5 6 6 6 6 5 5
2 1 1 1 1 1 1 1 1 0 1 2 2 2 2 2 2 3 3 3 2 2 2 2 3 3 3 1 1 4 7 9 10 10 10 11 12 12 13 13 13 13 13 13 13 13 13 13 13 13 13 13 13 12 12 12 11 11 10 10 9 9 9 9 9 9 8 7 7 6 5 4 4 3 2 2 2 2 4 5 6 6 6 5 5 4
2 2 1 1 1 1 1 1 1 2 1 1 2 3 3 2 2 3 3 3 2 2 2 1 1 2 2 3 2 1 3 5 6 6 6 6 6 8 9 10 11 11 12 12 12 12 12 12 12 13 12 12 12 12 12 11 11 10 9 9 9 8 8 9 9 8 8 7 7 6 5 5 4 4 3 3 3 4 4 5 6 6 5 5 4 4
2 2 2 1 1 1 1 0 1 2 2 1 1 2 3 3 3 2 2 2 2 2 2 1 1 1 1 3 3 2 2 3 4 5 5 5 5 5 6 6 6 7 9 10 10 10 10 11 11 12 12 12 12 12 11 10 10 9 9 9 9 8 8 8 8 8 8 8 7 7 7 7 7 6 6 6 6 5 6 6 6 6 5 4 4 3
2 2 2 1 1 1 1 0 0 1 2 2 2 2 2 2 3 3 3 2 1 1 2 2 2 2 1 2 3 3 2 2 3 4 5 5 6 7 6 6 6 6 7 7 8 8 9 10 10 11 11 11 11 11 10 9 9 8 8 8 8 8 8 8 8 8 8 8 8 9 9 9 9 9 9 8 7 7 7 6 6 6 5 4 4 4
1 1 1 1 1 1 1 1 1 1 2 2 2 1 1 1 2 3 4 3 2 1 1 2 3 3 3 3 3 2 2 2 2 2 3 3 4 4 5 5 5 5 5 5 5 5 7 8 9 9 10 10 10 9 8 8 8 8 8 8 8 8 8 8 8 8 8 9 9 10 11 11 11 11 10 9 9 8 7 7 6 6 5 5 4 4
1 1 1 1 1 1 1 1 1 1 1 1 1 2 2 1 1 2 3 4 3 2 1 2 3 3 4 4 3 2 2 2 2 2 3 3 3 3 3 3 3 4 4 4 4 3 2 3 4 6 7 7 7 7 7 7 7 8 8 8 9 9 9 9 9 9 9 10 11 11 12 12 12 11 11 10 9 9 8 7 7 6 6 6 6 6
1 1 1 2 2 2 1 1 1 1 1 1 0 1 1 1 0 1 3 3 3 3 2 2 2 3 3 4 4 3 2 1 2 2 2 3 3 3 3 2 3 3 3 4 4 6 7 5 3 3 4 5 6 7 7 7 8 8 8 9 9 10 10 10 10 10 11 12 12 12 12 12 12 12 11 10 10 9 9 8 8 7 7 7 7 7
2 2 2 2 2 2 1 1 2 1 1 1 0 0 1 1 1 2 3 3 3 3 3 3 3 3 3 3 4 4 3 1 1 2 2 2 3 3 3 2 2 2 3 3 3 4 7 6 5 3 3 4 4 5 6 6 7 9 9 10 10 11 11 11 12 12 12 13 13 13 12 12 12 12 11 10 10 9 9 9 8 8 8 8 7 7
2 3 3 3 3 2 1 1 1 2 1 1 1 1 1 1 1 2 3 4 3 3 3 3 3 2 2 2 3 4 4 2 2 2 3 2 3 3 3 2 2 2 3 3 3 3 4 4 4 3 3 3 5 7 7 7 8 9 10 11 11 12 12 12 13 13 13 13 13 13 13 12 12 12 11 10 10 10 9 9 8 8 8 8 8 8
2 2 3 3 3 2 2 1 1 1 1 1 1 1 1 1 1 2 3 3 3 3 3 3 3 2 1 2 2 3 4 3 2 3 3 2 2 3 3 2 2 2 3 3 3 2 3 3 2 2 2 4 7 8 8 9 9 10 11 12 12 13 13 13 13 14 14 14 14 13 13 12 12 11 11 10 10 10 9 9 8 8 8 8 8 8
1 2 2 3 3 2 2 2 1 1 1 1 1 1 1 1 1 1 2 2 3 3 3 3 3 3 2 1 1 3 3 2 2 2 3 2 2 3 4 2 2 3 3 3 3 3 2 2 1 1 3 6 8 9 9 10 11 11 12 12 13 13 14 14 14 14 14 14 14 13 13 12 12 11 11 10 10 10 9 9 9 8 8 8 8 8
2 2 3 3 3 2 2 2 1 1 1 1 1 0 1 1 1 1 2 2 2 2 2 2 2 2 3 2 1 2 3 2 2 3 3 3 3 3 4 3 2 3 3 3 3 3 3 2 2 4 7 9 10 11 11 11 12 12 13 13 14 14 14 14 14 14 14 14 14 13 13 12 12 11 11 10 10 10 9 9 9 8 8 8 8 8
4 3 3 3 3 3 3 2 2 2 2 2 1 1 1 1 1 1 2 2 1 1 2 2 2 3 3 3 2 1 3 2 2 2 3 3 3 3 4 3 2 3 4 3 3 3 3 2 4 7 11 12 13 12 12 13 13 13 14 14 14 14 14 15 15 14 14 14 14 13 13 12 12 11 11 10 10 10 9 9 9 8 8 8 8 8
5 4 4 2 2 2 2 2 3 3 3 2 1 1 1 1 1 1 2 2 2 2 2 3 3 3 3 3 2 1 3 2 2 2 2 2 2 3 4 3 2 2 4 3 3 3 3 3 4 6 9 12 14 14 14 14 14 14 14 14 15 15 14 14 14 14 14 14 13 13 12 12 11 11 10 10 10 9 9 9 8 8 8 8 8 8
4 4 4 4 3 3 3 3 3 4 4 3 2 1 1 1 1 1 2 2 2 2 3 3 3 4 4 4 3 2 2 2 2 2 2 2 2 2 3 3 3 2 3 3 3 3 4 4 5 6 9 13 15 16 15 15 14 14 14 14 15 14 14 14 14 14 14 13 12 12 11 11 11 10 10 9 9 9 9 8 8 8 8 8 8 8
4 4 4 5 5 4 4 3 4 4 4 4 3 2 1 1 1 1 2 2 3 4 5 5 5 5 5 4 3 3 3 3 2 2 3 3 2 2 2 3 2 2 3 3 3 4 5 5 6 6 9 14 16 16 16 15 14 14 14 14 14 14 14 14 14 13 13 12 12 11 11 11 10 10 9 9 9 9 8 8 8 8 8 8 8 8
5 5 4 4 4 4 3 3 3 3 3 3 3 3 3 3 2 2 2 3 5 6 6 6 6 5 5 4 4 4 4 4 3 2 3 3 3 2 2 1 1 2 3 3 3 4 5 6 6 6 7 12 15 17 16 15 14 14 14 14 14 14 13 13 13 12 12 12 11 11 10 10 10 9 9 9 9 8 8 8 8 8 8 8 9 9
6 6 6 6 7 8 7 6 6 5 4 4 4 4 4 4 4 4 3 4 5 6 6 6 6 5 3 3 3 3 4 4 3 2 3 3 3 2 2 1 1 2 2 2 3 3 4 5 5 6 6 8 12 15 16 15 15 14 14 14 13 13 13 12 12 12 11 11 11 10 10 10 10 9 9 9 9 9 8 8 8 8 8 9 9 9
13 13 13 14 16 17 16 15 14 12 10 7 5 4 4 4 3 3 4 4 4 5 6 6 5 4 3 2 2 2 3 3 4 3 2 3 3 2 1 1 1 2 2 2 3 4 5 5 6 6 6 7 9 12 15 14 14 14 14 13 13 12 12 12 12 11 11 11 10 10 10 10 10 9 9 9 9 9 9 8 8 8 9 9 9 9
21 22 22 22 22 21 21 20 20 19 17 14 11 7 5 3 3 3 4 3 2 3 5 6 5 4 3 2 2 2 2 3 4 3 2 2 3 3 1 1 1 1 2 2 3 4 6 6 6 6 6 6 8 10 13 13 13 12 13 13 13 12 12 11 11 11 11 10 10 10 10 10 10 10 9 9 9 9 9 8 8 8 8 8 7 7
23 23 22 22 21 21 20 20 20 20 20 18 16 13 7 4 3 3 3 2 1 2 4 5 5 4 3 2 2 2 3 3 4 3 3 2 3 3 2 1 1 1 2 2 3 4 6 5 5 5 5 6 6 8 10 11 11 11 12 13 13 12 11 11 11 11 10 10 10 10 10 10 10 10 9 9 9 9 8 8 8 8 7 6 4 3
20 20 20 20 20 19 18 18 18 19 20 19 17 14 9 6 4 3 2 2 1 2 4 5 4 4 3 3 2 2 3 3 3 3 2 2 3 3 2 2 1 1 2 2 2 3 4 3 3 3 3 5 5 5 6 7 8 9 10 12 12 12 12 11 11 10 10 10 10 10 10 10 10 10 9 9 9 8 8 8 7 6 5 4 3 2
14 15 15 16 15 15 14 13 14 16 18 18 17 14 10 7 5 3 3 3 2 3 4 5 5 4 4 3 2 2 2 3 3 3 2 2 2 2 2 2 1 0 1 2 2 2 2 2 2 2 2 3 4 3 4 4 4 5 6 8 9 10 11 10 10 10 10 10 10 10 10 10 10 10 9 9 9 9 9 8 7 5 3 2 2 2
9 10 9 10 10 9 9 9 10 11 13 14 14 12 9 7 5 4 4 4 3 3 4 4 4 3 3 2 2 1 1 2 3 4 2 1 2 2 2 2 1 0 1 1 2 2 2 1 1 1 1 2 2 2 2 3 3 3 3 5 6 7 9 9 9 8 9 9 10 10 10 10 10 10 9 9 9 9 9 9 7 5 2 2 2 2
7 7 7 7 7 7 7 7 7 8 9 9 10 9 9 8 6 5 5 4 4 4 4 4 3 3 3 3 2 2 1 1 3 4 3 1 2 2 1 2 2 1 1 1 1 2 3 2 1 1 1 1 1 1 2 2 2 3 3 4 4 5 7 7 7 6 7 8 9 10 11 10 10 10 10 9 9 9 9 9 8 6 3 2 2 2
7 6 6 6 6 6 6 6 7 7 7 7 7 7 7 7 7 7 6 5 5 4 4 4 4 4 4 5 4 3 1 1 3 4 3 1 1 1 1 2 2 1 1 2 2 2 2 2 1 1 0 0 1 1 1 2 2 2 3 3 3 3 4 4 4 4 5 6 7 8 9 10 10 10 10 9 9 9 9 9 8 7 5 2 2 2
7 7 6 6 6 6 6 7 7 7 7 7 7 7 7 7 7 7 7 6 5 5 5 4 4 4 4 4 4 3 2 1 3 4 4 2 1 1 1 1 1 1 1 1 1 2 1 1 1 1 1 1 1 1 1 1 2 2 2 2 2 2 2 2 2 2 3 3 4 4 6 6 8 9 9 9 9 9 9 9 9 8 7 4 3 2
6 7 7 6 6 6 6 7 7 7 7 7 7 7 7 6 6 6 7 6 6 6 5 5 5 4 4 4 4 3 2 2 4 5 4 2 1 1 1 1 1 1 1 1 1 1 1 1 1 2 1 1 1 1 1 1 1 1 1 1 1 1 1 1 1 1 2 2 2 2 3 3 4 5 6 7 8 9 9 9 9 8 8 7 5 4
6 7 6 6 6 6 6 6 6 6 6 6 6 6 6 6 6 6 6 6 6 7 7 6 6 6 5 5 5 4 3 2 3 5 5 3 2 1 1 1 1 1 2 1 1 1 1 1 1 2 2 1 1 0 1 2 1 1 1 1 1 1 1 1 1 1 1 2 2 2 2 2 3 3 4 7 8 9 9 9 9 9 8 9 8 7
6 6 6 6 5 5 6 5 5 5 5 5 5 5 6 6 6 6 6 6 6 6 7 8 8 8 8 7 6 5 3 3 3 4 5 3 2 2 2 1 1 1 1 2 2 2 2 2 1 1 1 1 1 1 1 1 2 2 2 1 1 1 1 1 1 1 2 1 1 1 1 2 2 3 4 6 7 8 8 8 9 9 9 9 9 9
6 6 5 5 5 5 5 5 5 5 4 4 4 4 5 5 5 6 5 6 6 6 6 7 7 8 11 10 9 7 5 5 6 6 6 5 3 2 2 2 1 2 1 1 2 2 2 2 2 1 1 1 1 1 0 1 1 1 2 2 1 1 1 1 1 1 1 1 1 1 2 2 2 2 3 4 5 5 5 5 6 7 8 8 9 9
6 5 5 5 5 4 4 4 4 4 4 4 4 4 4 5 5 5 5 5 6 6 6 6 6 7 9 10 10 10 9 8 8 8 8 6 5 3 3 2 2 2 2 1 1 2 2 2 2 2 2 1 1 1 0 0 0 1 2 2 2 2 1 1 1 1 1 1 1 2 2 2 2 2 2 3 3 3 3 3 4 5 5 5 5 7
5 5 5 5 5 4 3 4 3 3 4 4 4 5 4 4 4 4 5 5 5 5 5 5 5 6 7 8 9 9 9 8 8 8 7 6 5 4 3 3 2 2 2 2 2 2 2 2 2 2 2 2 1 1 0 0 1 1 1 2 2 2 1 1 1 0 0 1 1 2 2 2 2 2 2 2 2 2 2 2 3 3 3 2 2 3
5 4 4 4 4 4 4 4 3 3 4 4 4 4 4 4 3 3 4 4 4 4 4 5 5 5 6 6 7 7 8 7 8 7 6 6 6 5 4 3 2 2 2 2 2 2 2 2 2 2 1 1 1 1 1 0 0 1 2 2 1 1 1 0 0 0 1 1 1 2 2 2 3 3 2 2 2 2 2 2 2 3 2 1 1 1
5 4 3 3 3 3 3 3 4 4 5 4 4 4 4 4 3 3 3 3 3 3 3 3 3 4 5 5 5 6 6 6 7 7 7 7 7 6 5 4 3 2 2 2 3 3 2 2 2 2 1 1 1 1 1 1 1 2 3 1 0 1 2 1 1 1 1 1 1 2 3 2 2 2 2 2 2 2 2 2 3 4 3 2 1 0
4 3 3 2 2 2 3 4 4 5 4 4 4 4 4 3 3 3 3 3 3 3 3 3 3 3 4 4 4 4 5 6 6 7 7 6 6 6 5 5 4 3 2 2 2 2 2 3 2 2 1 1 2 2 1 1 1 1 1 0 0 1 1 2 2 2 1 1 1 1 2 1 1 2 2 2 2 2 2 3 4 5 5 3 2 2
3 3 3 2 3 3 4 4 4 4 4 4 4 4 4 4 4 4 3 3 3 3 3 2 2 3 4 3 3 4 4 5 5 6 7 8 7 6 5 5 5 4 3 2 2 1 1 2 1 1 0 1 2 2 1 1 1 1 1 1 1 1 1 2 2 1 1 1 1 1 1 1 2 2 2 2 2 2 2 2 2 3 3 3 3 3
2 3 3 3 3 4 4 4 4 4 4 4 4 4 4 4 4 4 3 3 3 3 3 2 2 2 3 3 3 3 3 3 4 5 5 7 9 8 6 5 4 3 3 2 2 1 1 1 0 0 1 1 1 2 2 2 2 2 2 1 1 1 2 2 1 1 1 1 1 1 1 1 2 2 2 2 2 2 2 2 2 3 3 2 3 3
3 3 3 3 3 4 4 4 3 3 3 4 4 4 4 4 4 4 4 3 3 3 3 2 2 2 2 2 2 2 2 3 3 3 4 5 5 5 5 4 4 3 2 1 1 1 1 1 1 1 1 1 1 1 2 2 2 2 1 1 1 1 1 1 0 0 0 1 1 1 2 2 2 2 3 3 3 3 2 2 2 2 3 3 3 3
3 3 3 3 3 3 3 3 3 3 4 4 4 3 3 3 3 3 4 4 3 3 3 3 3 3 3 2 2 2 2 3 3 3 3 4 4 4 4 4 3 3 2 1 1 1 2 2 3 3 2 1 1 1 2 2 2 2 1 1 0 0 1 1 0 0 1 1 1 2 2 2 3 3 3 3 3 3 2 2 2 2 2 3 3 3
3 3 3 3 3 3 3 3 3 3 3 3 3 3 3 4 4 4 3 3 3 3 3 3 3 3 3 3 3 3 3 3 3 3 3 3 3 3 3 3 3 3 2 2 2 2 2 2 2 3 3 3 2 1 2 2 1 1 1 1 1 0 0 0 0 0 1 1 2 2 3 3 3 3 4 4 4 3 3 2 2 2 2 2 3 3
3 3 3 3 3 3 3 3 3 3 3 3 3 3 3 4 5 5 3 3 3 3 3 3 3 3 3 3 3 4 4 3 3 2 3 3 3 3 3 3 2 2 2 3 3 2 2 1 2 2 3 3 3 2 1 1 1 1 1 1 1 1 0 0 1 1 1 2 2 3 3 2 2 2 2 4 4 4 4 3 2 2 2 2 2 3
3 3 3 3 3 3 3 3 3 4 3 3 3 3 3 3 4 4 3 3 3 3 3 3 3 3 3 3 3 3 3 3 2 2 3 3 3 3 3 3 3 2 2 2 3 3 2 2 1 1 3 4 4 3 1 1 1 1 1 1 1 1 1 0 1 1 2 3 3 3 3 2 2 2 2 3 4 5 4 4 3 2 2 2 2 3
3 3 3 3 3 3 3 3 3 3 3 3 3 3 3 3 3 3 3 3 3 3 3 2 2 3 3 3 3 3 3 2 2 2 3 3 3 3 3 3 3 3 2 2 3 3 2 2 2 2 1 1 2 3 2 2 1 1 1 1 1 1 1 0 1 1 2 2 2 2 3 3 2 2 2 2 3 4 5 4 4 3 2 2 2 3
Wind_Direction
123 343 348 39 88 119 156 160 148 135 125 105 96 93 94 90 73 73 136 137 133 130 129 130 131 134 136 141 144 145 144 144 144 144 145 146 147 146 145 143 142 141 141 141 141 142 143 144 145 145 145 143 139 136 132 130 129 128 127 126 124 123 121 118 116 113 110 107 104 101 97 94 91 89 86 85 83 82 80 79 77 74 72 68 64 60
117 94 32 56 84 114 161 179 169 154 147 141 133 124 116 111 93 65 79 143 141 139 139 137 137 139 142 144 148 149 147 147 147 148 148 148 149 148 148 147 146 146 146 146 147 147 148 149 149 149 148 145 141 137 134 131 130 129 128 128 127 125 124 122 120 118 115 112 108 105 100 97 93 90 87 85 84 83 82 80 78 75 72 68 63 58
131 129 125 101 104 118 154 191 192 175 155 150 145 138 130 130 133 143 165 169 155 146 144 142 142 143 146 148 152 153 151 150 150 150 150 151 151 151 151 151 151 151 151 152 152 153 153 154 153 152 150 147 143 140 137 135 133 132 131 130 129 128 127 126 124 122 120 117 113 109 105 100 96 92 89 87 85 84 83 82 79 76 72 67 62 56
128 138 152 140 129 132 155 182 189 183 154 136 131 131 129 133 144 158 164 160 151 142 136 140 144 146 148 149 154 155 155 153 153 153 153 153 154 155 155 156 156 156 156 157 157 157 157 157 156 154 152 149 146 143 140 139 137 135 134 133 131 130 129 129 128 126 124 121 118 114 110 105 100 95 91 89 87 86 85 84 81 77 72 66 60 54
124 139 153 138 125 120 119 149 152 141 107 101 109 115 119 120 124 124 110 112 118 119 112 121 139 149 152 153 156 158 159 156 155 155 156 157 158 159 160 161 161 161 161 161 161 161 160 159 158 156 153 151 148 146 144 143 141 140 138 137 136 135 133 132 131 130 128 125 122 119 115 110 104 98 93 90 89 88 87 85 83 79 73 67 60 54
132 106 96 105 108 103 67 66 97 106 90 88 95 100 99 94 88 81 75 79 88 90 79 67 79 121 152 159 160 161 161 157 156 157 158 160 161 163 164 165 165 165 165 164 164 163 162 160 159 157 155 153 151 149 148 147 146 145 144 143 142 141 140 139 138 135 133 131 128 125 121 115 110 103 96 91 89 89 89 89 86 82 77 70 62 54
114 60 27 64 73 72 57 45 80 112 111 106 102 95 85 75 68 65 68 70 72 70 62 39 29 27 42 155 164 163 162 159 157 158 160 162 164 166 167 168 168 168 168 167 166 165 163 161 160 158 156 155 154 153 152 151 150 150 150 149 149 148 148 147 146 143 141 138 136 133 130 126 122 117 108 97 87 87 91 92 90 87 82 75 67 57
112 82 46 61 63 54 42 20 14 52 124 131 128 120 99 79 62 56 57 56 53 51 53 36 24 17 12 19 137 155 159 158 157 157 159 162 164 167 169 170 171 171 170 169 168 166 164 162 161 159 159 158 157 156 155 154 154 154 155 154 153 153 153 153 152 150 148 147 146 145 144 143 142 137 129 113 98 90 89 92 93 91 87 81 72 62
108 99 71 64 72 81 74 10 338 337 351 114 138 138 128 118 87 61 55 48 37 29 37 46 38 21 3 7 27 88 138 152 155 156 155 156 159 163 167 169 171 171 172 171 169 168 166 164 163 162 161 161 160 160 159 158 159 159 158 156 155 155 155 156 155 154 153 152 150 148 147 144 141 135 123 110 100 91 88 90 92 92 90 85 77 66
90 96 93 69 64 78 100 88 326 332 347 1 89 134 135 136 125 102 79 59 30 16 18 55 92 89 28 10 13 28 74 130 143 147 146 149 149 150 153 158 163 169 172 172 172 171 170 168 167 165 165 164 163 163 163 162 162 161 159 156 155 154 154 155 156 155 154 151 147 142 137 132 128 123 115 109 102 95 90 91 92 92 90 85 78 67
81 88 101 89 70 59 71 83 329 333 360 15 31 59 100 127 133 133 133 120 69 22 12 25 44 57 44 12 5 10 36 85 112 123 126 133 137 139 139 138 145 155 162 167 171 175 177 175 174 172 170 169 168 167 165 163 160 158 155 153 152 152 153 153 153 151 149 146 142 137 132 129 125 121 117 114 109 102 96 94 93 91 89 84 76 67
105 105 110 106 92 70 56 29 352 357 24 48 60 68 68 113 135 141 150 154 151 109 36 31 30 28 25 12 360 0 30 66 78 84 86 90 97 107 114 111 112 117 124 129 140 156 172 175 175 174 172 171 168 165 161 157 153 151 150 149 149 148 147 145 143 141 139 137 134 131 127 125 122 120 117 114 109 104 97 94 90 87 83 77 71 65
114 119 121 109 98 87 70 48 25 20 32 69 114 147 173 185 155 147 150 158 160 150 81 58 44 34 28 14 359 352 22 64 73 72 68 55 41 37 55 71 75 75 75 68 57 52 81 129 152 160 160 159 156 151 146 144 144 144 144 143 142 140 137 133 129 126 124 123 123 122 121 120 118 116 113 109 104 99 93 88 83 78 73 69 64 59
128 127 113 100 91 84 85 96 102 95 60 60 132 198 220 258 174 136 131 137 138 127 86 72 58 44 32 14 357 343 344 53 73 70 64 54 34 19 16 46 65 69 65 60 37 20 17 25 44 91 119 125 129 131 132 134 136 137 137 135 132 129 125 121 118 115 114 114 114 114 115 114 112 110 107 103 99 93 87 81 76 72 67 64 60 56
156 149 131 119 110 102 101 112 118 124 120 99 44 322 339 353 73 124 128 128 126 117 97 80 67 51 39 20 355 337 327 15 82 80 67 49 32 21 17 35 51 56 57 64 42 16 7 10 13 30 68 91 108 119 124 127 129 130 128 126 123 119 116 113 111 109 108 107 106 106 105 105 104 102 100 98 93 88 83 77 72 68 65 62 58 54
155 148 141 131 121 109 96 98 109 118 122 116 94 56 49 65 108 131 134 136 135 131 122 107 90 65 37 23 356 338 331 3 66 86 84 50 23 14 14 36 56 59 50 57 45 17 1 2 7 21 48 91 112 119 121 122 123 122 120 118 116 113 110 108 106 104 102 101 100 99 98 97 97 95 94 90 87 83 78 73 69 65 62 60 57 53
127 126 128 122 115 102 80 70 74 87 101 92 86 75 77 96 116 130 137 141 144 147 146 131 123 111 77 22 353 342 339 8 53 79 86 60 20 4 4 31 76 84 63 55 45 32 19 19 23 31 50 103 114 117 117 117 116 115 114 112 110 108 106 103 101 99 97 96 95 94 93 92 90 88 86 83 80 76 72 68 64 60 58 55 53 50
78 88 103 109 108 99 79 62 46 36 29 39 62 76 79 81 89 107 126 142 155 164 161 145 141 140 134 122 342 334 335 4 46 73 80 64 24 1 357 12 65 89 78 57 40 28 27 31 36 53 74 102 107 108 109 109 109 109 107 106 104 103 101 99 97 95 94 92 91 90 88 86 84 82 80 76 72 68 64 61 57 54 51 49 47 45
62 67 82 96 98 93 78 58 39 19 4 345 354 67 96 82 81 89 106 135 155 164 155 141 134 129 121 123 89 338 327 356 49 72 73 56 27 4 354 0 49 83 78 55 33 17 9 23 80 100 98 98 99 99 100 101 102 102 101 100 98 97 95 94 93 92 90 89 87 86 84 82 79 77 74 70 66 62 57 53 49 46 43 41 39 37
55 52 52 74 90 91 76 52 31 8 343 324 324 4 96 95 92 94 103 115 120 118 115 107 96 90 92 98 84 22 335 6 49 67 65 57 34 10 357 353 31 81 77 51 24 9 5 30 79 94 95 91 90 91 93 94 95 96 95 94 93 92 92 91 90 89 87 86 84 82 81 78 75 73 69 65 61 57 52 47 43 39 37 34 32 30
57 49 35 40 63 80 72 45 23 7 351 336 335 7 63 86 97 107 119 120 114 97 88 92 84 78 84 93 80 22 336 24 67 84 74 59 38 18 2 351 10 61 76 54 28 11 15 41 62 76 84 84 84 86 88 90 91 92 92 92 91 90 89 88 87 86 85 83 82 80 78 75 73 69 66 62 58 53 48 42 37 33 31 29 26 23
64 54 35 36 45 57 62 45 24 13 6 6 9 18 15 67 95 114 124 123 118 107 94 91 87 84 85 86 72 27 347 20 75 107 99 79 54 28 6 348 353 31 70 56 35 23 31 46 54 66 80 83 84 84 86 87 89 90 91 90 89 88 87 86 85 84 83 81 80 78 76 73 70 66 63 59 54 49 44 38 33 29 26 25 22 19
69 65 54 49 50 52 49 35 20 10 8 20 30 34 19 36 65 94 109 112 111 106 101 98 93 86 80 78 62 36 15 11 27 81 96 95 85 52 13 350 350 16 53 42 33 32 40 44 41 49 71 80 80 80 83 85 87 88 88 88 86 86 85 84 83 82 80 79 77 75 73 70 67 64 59 55 51 46 40 34 29 26 24 23 20 16
65 67 64 61 60 58 53 41 26 13 8 19 28 34 33 35 41 55 76 97 105 108 108 105 97 86 75 69 57 40 21 5 5 40 88 94 89 68 22 1 30 54 50 28 25 33 45 44 31 25 40 69 74 74 76 80 82 83 83 83 83 82 82 81 80 79 77 76 74 72 70 67 64 60 56 52 47 42 36 31 27 24 23 22 18 13
55 57 59 61 61 61 60 55 47 39 29 24 25 29 34 37 41 49 65 84 99 108 112 108 101 91 77 65 53 37 19 5 5 29 89 96 91 75 34 22 65 87 66 24 21 34 50 47 35 23 20 48 62 68 71 73 75 76 78 79 79 79 78 77 76 75 74 72 70 68 66 63 60 57 53 49 44 38 33 27 25 24 24 22 18 12
52 52 52 54 56 57 57 56 53 50 45 41 34 28 29 32 38 45 54 68 90 106 111 107 102 97 86 68 52 34 12 9 14 27 71 100 104 95 56 28 56 84 82 33 25 36 52 46 37 25 16 17 35 51 64 69 73 75 76 76 76 75 73 73 72 71 70 68 66 64 62 60 57 54 50 45 40 34 28 25 23 23 25 24 19 12
53 53 52 52 51 51 51 51 51 49 47 44 40 36 30 32 44 51 49 46 71 100 108 109 108 105 93 78 59 34 14 19 20 20 23 90 108 111 104 89 101 106 95 55 39 42 52 44 35 25 17 4 9 25 46 58 68 74 76 75 73 71 69 68 67 66 66 65 63 61 59 57 54 51 46 42 37 31 24 22 22 23 24 25 20 11
51 50 49 48 46 46 46 47 47 47 46 45 42 38 33 37 52 57 43 4 25 83 101 107 110 109 102 92 75 48 30 27 20 10 360 67 100 111 122 134 140 131 115 86 57 51 53 47 37 25 15 8 5 12 25 39 51 62 69 70 70 67 65 64 63 63 62 62 61 59 57 54 51 47 43 38 33 27 19 19 21 25 26 25 19 6
48 48 48 46 45 44 42 42 43 44 45 45 43 40 36 41 49 51 16 333 359 76 96 99 101 103 105 102 90 65 42 29 13 0 352 59 90 105 124 128 134 134 129 118 88 62 54 49 41 31 19 17 14 9 8 20 32 45 55 61 63 62 60 59 59 60 60 60 59 58 55 51 47 44 39 34 29 23 15 14 20 28 31 25 15 360
43 44 44 43 42 41 40 39 38 40 41 42 43 42 41 42 42 34 2 348 17 70 93 98 102 107 114 112 99 73 44 18 360 352 356 66 95 107 123 120 115 122 157 137 120 97 67 50 44 40 32 29 25 16 0 7 18 32 43 51 54 55 54 53 55 57 59 59 59 56 53 49 44 39 34 29 25 19 11 9 14 23 32 21 6 354
41 42 41 38 37 36 37 37 36 36 36 37 38 39 38 38 35 26 12 11 29 57 83 93 100 105 110 113 107 90 55 357 349 350 0 70 101 109 119 117 103 45 309 135 134 132 124 98 59 44 41 46 43 33 14 14 21 32 41 46 46 46 46 46 48 52 56 57 57 55 50 45 40 35 29 25 21 16 9 5 6 11 18 11 360 346
44 44 41 37 34 34 35 35 34 33 32 32 32 31 31 32 31 28 22 23 31 46 67 80 84 83 77 79 85 90 83 341 342 349 4 66 100 104 106 110 104 68 342 6 84 120 128 130 121 79 41 55 63 52 27 28 32 41 50 53 48 40 37 37 39 45 51 53 52 51 47 41 36 31 25 21 17 12 7 1 0 1 3 0 349 336
47 45 42 39 38 37 37 35 35 34 32 30 29 27 26 26 27 28 27 27 30 38 52 67 76 79 79 78 80 83 79 356 345 350 4 50 98 106 95 99 101 89 31 21 35 64 100 118 125 119 50 36 50 49 26 27 33 43 52 59 53 38 27 26 30 38 47 50 49 46 43 37 31 26 21 17 13 8 3 358 355 353 352 345 337 333
47 45 43 41 40 40 39 38 37 36 35 32 30 28 25 23 23 24 26 27 31 35 41 51 64 76 86 89 90 87 75 8 348 351 3 33 83 98 92 87 94 99 84 54 46 49 65 83 104 114 102 37 19 15 8 6 10 18 37 60 62 46 21 15 19 31 42 46 44 40 37 31 26 21 16 12 8 3 358 354 351 348 347 342 339 336
45 42 39 39 39 41 40 39 39 38 37 34 31 29 27 26 24 24 24 26 31 36 40 43 49 58 73 86 91 90 72 5 348 352 6 26 65 92 85 70 80 98 96 89 85 80 77 70 89 108 116 89 29 352 336 329 329 332 336 40 69 68 39 20 23 36 42 41 37 32 24 22 19 15 9 5 2 359 355 352 349 346 345 344 345 344
45 41 36 35 37 39 40 39 38 38 37 34 31 29 29 29 28 27 27 28 32 38 44 46 48 52 58 70 79 82 73 18 355 359 12 21 44 78 85 70 70 89 99 100 100 101 104 94 94 99 107 113 113 315 311 314 321 329 333 350 37 62 54 30 39 56 57 49 37 21 8 11 11 7 0 0 359 357 354 351 349 347 346 346 347 345
46 42 35 33 34 36 39 37 36 35 34 32 30 30 31 32 33 32 33 33 35 40 46 50 53 56 59 66 71 73 69 42 23 19 23 23 34 60 84 77 60 68 98 112 117 116 112 109 103 97 94 122 150 202 291 323 345 356 344 331 356 36 34 7 18 53 74 65 45 19 7 7 4 1 356 358 357 355 351 349 347 347 348 347 346 343
46 42 36 32 31 32 35 34 32 30 28 28 29 30 31 35 36 37 39 40 42 45 50 53 56 59 59 63 64 63 58 48 41 37 33 32 38 55 78 76 51 40 62 106 124 126 121 124 129 136 148 173 190 208 259 341 357 350 317 315 342 28 30 5 10 34 65 58 27 8 7 3 357 354 352 354 353 350 346 343 342 343 346 345 343 340
44 40 36 32 30 28 30 31 28 23 20 22 25 28 30 35 37 39 42 45 47 50 53 58 63 63 59 58 56 54 51 46 43 40 37 36 39 50 68 71 55 34 34 66 99 116 125 134 145 156 163 178 202 231 272 301 312 302 305 331 350 9 20 20 22 31 49 35 12 0 354 343 343 347 347 348 348 348 344 332 332 336 341 340 337 335
44 39 35 31 27 24 26 27 25 21 19 23 26 28 28 32 33 34 36 43 46 49 53 59 65 67 63 59 54 50 45 43 41 40 38 35 36 41 52 59 58 50 44 52 68 88 107 122 135 144 148 154 164 178 203 241 252 260 16 18 6 353 345 15 23 13 17 23 7 352 334 330 338 347 347 346 345 342 334 323 320 323 330 335 335 331
45 38 31 24 21 23 30 27 26 26 29 29 28 27 25 27 28 29 30 36 39 41 44 52 60 64 61 57 53 49 45 42 41 40 41 37 36 37 41 42 41 42 50 52 54 62 81 101 111 115 117 127 132 134 130 166 13 45 68 70 27 298 289 313 357 351 337 353 344 340 342 346 351 351 342 336 326 313 304 300 302 305 315 324 340 334
47 39 25 15 10 11 12 18 28 35 38 37 35 31 24 23 25 29 33 35 35 35 35 43 54 60 58 51 46 43 42 39 38 39 43 41 40 39 37 33 31 33 47 53 49 45 45 64 77 84 89 98 100 94 72 11 13 30 51 81 247 291 301 303 313 334 354 345 338 343 358 357 350 339 326 315 301 293 295 295 305 312 320 320 305 272
38 29 13 4 2 9 22 31 35 37 38 39 37 31 20 17 21 32 41 41 38 36 35 39 51 62 63 52 40 32 30 29 31 33 37 42 44 43 38 33 29 29 38 53 51 39 31 46 57 69 76 96 103 104 101 9 342 343 354 185 109 37 334 305 305 314 343 343 345 353 6 353 328 303 290 286 283 284 290 297 306 312 315 306 295 280
28 18 5 6 13 23 33 34 35 35 39 42 38 31 17 14 21 31 40 39 38 35 30 27 44 61 64 54 40 26 18 16 20 25 29 33 37 40 40 34 31 32 42 58 63 52 33 40 44 41 5 115 121 126 143 177 247 273 267 230 178 165 202 250 276 303 328 334 347 356 355 327 306 291 286 283 282 285 286 288 293 296 297 290 283 281
21 18 16 20 27 33 37 35 35 38 43 44 40 31 20 17 22 29 36 36 35 31 23 21 41 57 54 40 29 19 11 8 12 17 21 23 27 31 36 34 33 35 43 57 75 95 95 84 309 259 248 144 137 145 163 180 202 230 245 231 205 196 211 227 241 271 308 334 347 345 325 309 309 316 322 316 306 296 286 284 285 286 285 284 282 279
28 26 23 25 31 36 37 34 35 41 47 45 40 31 22 21 24 30 33 34 34 31 22 29 49 63 58 37 22 16 14 10 8 9 10 11 13 16 21 23 28 33 40 44 79 151 159 174 186 191 173 139 138 169 187 185 190 207 235 242 244 247 257 259 246 164 138 59 17 344 316 318 334 345 339 326 315 304 289 279 277 281 284 285 282 279
27 28 24 27 31 34 33 32 37 45 50 46 39 29 21 24 31 35 31 28 29 32 33 42 55 64 64 49 36 32 33 24 12 4 3 5 4 4 5 8 14 20 28 11 321 252 221 202 187 175 160 154 192 252 250 214 198 195 213 222 232 263 287 301 321 96 103 72 38 0 339 349 352 347 334 323 315 309 302 293 278 272 274 279 280 280
26 27 26 28 32 35 33 33 38 45 49 45 38 29 22 28 37 42 36 23 25 33 40 46 54 59 58 49 42 40 42 34 22 10 7 4 360 356 354 353 357 3 8 355 337 306 264 229 202 182 168 166 181 224 253 242 216 197 196 193 179 164 220 319 2 54 71 53 31 10 2 3 353 338 326 321 317 313 312 307 297 280 265 270 273 277
28 26 27 32 37 39 35 32 37 44 47 45 40 33 25 33 41 46 42 31 30 34 40 47 53 56 54 43 38 36 38 33 25 14 9 2 355 350 347 348 352 355 355 348 340 328 303 271 231 207 195 180 177 187 228 237 219 192 173 147 135 134 131 52 27 28 36 23 11 2 1 356 340 322 320 320 316 314 313 311 304 290 267 263 265 271
34 31 31 36 40 42 36 34 38 42 45 45 43 38 30 33 35 37 37 39 41 42 43 46 52 58 57 46 38 36 37 32 24 16 10 2 355 352 351 353 356 358 357 354 351 348 342 345 329 277 225 197 181 173 184 196 187 137 99 92 99 112 115 70 20 9 11 4 356 349 345 336 328 324 329 321 315 312 312 311 309 302 286 276 273 276
34 35 34 38 41 42 38 40 42 43 41 46 47 44 37 36 34 33 34 39 41 40 36 36 44 57 61 52 43 37 37 37 31 21 9 0 355 354 355 356 359 3 7 8 8 8 8 10 3 345 301 203 157 142 151 152 127 73 49 44 49 71 89 54 359 348 352 350 344 337 335 330 327 326 331 324 318 315 314 314 312 309 305 301 297 293